Location: Erp
(42.9417°N, 1.2009°E)
Time: 13:11:07
(UTC+00:00)

Cosmos 1959 Rocket - Pass Details

Date: 28 April 2026
Orbit: 946 x 997 km, 82.9° (Epoch: 12 May)

Event Time Altitude Azimuth Distance (km) Brightness Sun altitude
Rises 20:00:23 0° 220° (SW) 3,693 7.6 -11.9°
Reaches altitude 10° 20:03:19 10° 232° (SW) 2,743 7.1 -12.3°
Maximum altitude 20:08:36 28° 289° (WNW) 1,767 6.7 -13.1°
Drops below altitude 10° 20:13:51 10° 346° (NNW) 2,730 7.6 -13.9°
Sets 20:16:47 0° 358° (N) 3,672 8.1 -14.4°
